CCA1731 ZBAA-VHHH

Flight info

Callsign CCA1731
Flight time N/A
Altitude 31000
Route ZBAA/18L K0856S1100 RUSD6J RUSDO W45 IPLEV/K0845S1130 B458 DADGA/K0852S1100 W37 GUSIV/K0867S1130 W37 PEXID/K0869S1100 W37 OMBEB/K0865S1130 R473 NNX/K0867S1160 R473 WYN W18 NLG W23 ZUH R473 SIERA SIER7A VHHH/07L
Aircraft B738/M-SDE1E2E3FGHIJ2J3J4J5M1RWXYZ/LB1D1

Departure

Time N/A
Airport Beijing Capital International Airport (ZBAA)

Arrival

Time 2026-05-05 11:41
Airport Hong Kong International Airport (VHHH)
Time Latitude Longitude Altitude Speed Heading
2026-05-05 08:56 39.63670 116.32213 16335 ft 380 kts 266°
2026-05-05 08:56 39.63448 116.28832 16829 ft 382 kts 265°
2026-05-05 08:56 39.63218 116.25350 17345 ft 384 kts 265°
2026-05-05 08:57 39.62991 116.21929 17838 ft 387 kts 265°
2026-05-05 08:57 39.62758 116.18440 18249 ft 390 kts 265°
2026-05-05 08:57 39.62523 116.14926 18665 ft 392 kts 265°
2026-05-05 08:57 39.62285 116.11397 19116 ft 394 kts 266°
2026-05-05 08:58 39.62045 116.07848 19542 ft 396 kts 266°
2026-05-05 08:58 39.61804 116.04301 19981 ft 397 kts 266°
2026-05-05 08:58 39.61560 116.00712 20416 ft 399 kts 266°
2026-05-05 08:58 39.61314 115.97121 20808 ft 402 kts 266°
2026-05-05 08:59 39.61067 115.93513 21225 ft 403 kts 266°
2026-05-05 08:59 39.60815 115.89866 21622 ft 405 kts 266°
2026-05-05 08:59 39.60571 115.86215 22005 ft 407 kts 269°
2026-05-05 08:59 39.60796 115.82574 22372 ft 408 kts 283°
2026-05-05 09:00 39.61767 115.79123 22745 ft 410 kts 296°
2026-05-05 09:00 39.63136 115.75857 23114 ft 413 kts 298°
2026-05-05 09:00 39.64545 115.72618 23455 ft 414 kts 298°
2026-05-05 09:00 39.65940 115.69347 23782 ft 415 kts 297°
2026-05-05 09:01 39.67315 115.66047 24071 ft 417 kts 297°
2026-05-05 09:01 39.68686 115.62721 24372 ft 418 kts 297°
2026-05-05 09:01 39.70065 115.59387 24682 ft 420 kts 297°
2026-05-05 09:01 39.71451 115.56045 24989 ft 421 kts 298°
2026-05-05 09:02 39.72836 115.52701 25295 ft 422 kts 298°
2026-05-05 09:02 39.74110 115.49252 25570 ft 424 kts 288°
2026-05-05 09:02 39.74622 115.45482 25828 ft 427 kts 273°
2026-05-05 09:02 39.74427 115.41621 26078 ft 432 kts 262°
2026-05-05 09:03 39.73498 115.37894 26437 ft 437 kts 248°
2026-05-05 09:03 39.72149 115.34346 26706 ft 441 kts 246°
2026-05-05 09:03 39.70712 115.30792 26826 ft 445 kts 245°
2026-05-05 09:03 39.69252 115.27242 27046 ft 447 kts 245°
2026-05-05 09:04 39.67792 115.23682 27408 ft 445 kts 245°
2026-05-05 09:04 39.66356 115.20150 27839 ft 442 kts 246°
2026-05-05 09:04 39.64933 115.16616 28221 ft 440 kts 246°
2026-05-05 09:04 39.63526 115.13099 28577 ft 439 kts 246°
2026-05-05 09:05 39.62125 115.09586 28916 ft 439 kts 246°
2026-05-05 09:05 39.60724 115.06069 29260 ft 438 kts 246°
2026-05-05 09:05 39.59326 115.02563 29577 ft 437 kts 247°
2026-05-05 09:05 39.57932 114.99073 29956 ft 434 kts 246°
2026-05-05 09:06 39.56541 114.95596 30235 ft 434 kts 246°
2026-05-05 09:06 39.55152 114.92128 30505 ft 434 kts 247°
2026-05-05 09:06 39.53764 114.88665 30690 ft 434 kts 247°
2026-05-05 09:07 39.50972 114.81712 30673 ft 434 kts 246°
2026-05-05 09:07 39.48191 114.74811 30676 ft 430 kts 246°
2026-05-05 09:08 39.45431 114.67970 30675 ft 428 kts 246°
2026-05-05 09:08 39.42672 114.61145 30696 ft 430 kts 246°
2026-05-05 09:09 39.39883 114.54258 30692 ft 435 kts 246°
2026-05-05 09:09 39.37052 114.47318 30682 ft 437 kts 246°
2026-05-05 09:10 39.34005 114.40559 30653 ft 445 kts 232°
2026-05-05 09:10 39.31629 114.37885 30695 ft 455 kts 217°
2026-05-05 09:10 39.28727 114.36133 30694 ft 465 kts 201°
2026-05-05 09:10 39.25518 114.35366 30673 ft 476 kts 186°
2026-05-05 09:11 39.22197 114.35784 30703 ft 484 kts 172°
2026-05-05 09:11 39.15650 114.37671 30683 ft 485 kts 172°
2026-05-05 09:12 39.08990 114.39376 30668 ft 485 kts 173°
2026-05-05 09:12 39.02399 114.41008 30662 ft 486 kts 173°
2026-05-05 09:13 38.95729 114.42722 30651 ft 486 kts 172°
2026-05-05 09:13 38.89140 114.44415 30660 ft 486 kts 173°
2026-05-05 09:14 38.82512 114.46106 30653 ft 486 kts 173°
2026-05-05 09:14 38.75880 114.47788 30648 ft 486 kts 173°
2026-05-05 09:15 38.69245 114.49454 30649 ft 487 kts 173°
2026-05-05 09:15 38.62583 114.51126 30642 ft 489 kts 173°
2026-05-05 09:16 38.55901 114.52815 30639 ft 490 kts 172°
2026-05-05 09:16 38.49211 114.54545 30637 ft 491 kts 172°
2026-05-05 09:17 38.42503 114.56233 30636 ft 491 kts 173°
2026-05-05 09:17 38.35777 114.57741 30635 ft 491 kts 174°
2026-05-05 09:18 38.29048 114.59212 30637 ft 491 kts 174°
2026-05-05 09:18 38.22320 114.60703 30635 ft 491 kts 174°
2026-05-05 09:19 38.15636 114.62198 30636 ft 490 kts 173°
2026-05-05 09:19 38.08912 114.63702 30639 ft 490 kts 173°
2026-05-05 09:20 38.02202 114.65199 30644 ft 490 kts 173°
2026-05-05 09:20 37.95477 114.66695 30644 ft 490 kts 173°
2026-05-05 09:21 37.88761 114.68187 30652 ft 490 kts 173°
2026-05-05 09:21 37.82033 114.69678 30655 ft 491 kts 173°
2026-05-05 09:22 37.75321 114.71163 30652 ft 491 kts 173°
2026-05-05 09:22 37.68575 114.72654 30657 ft 491 kts 173°
2026-05-05 09:23 37.61842 114.74138 30658 ft 492 kts 173°
2026-05-05 09:23 37.55097 114.75623 30663 ft 492 kts 173°
2026-05-05 09:24 37.48346 114.77104 30661 ft 493 kts 173°
2026-05-05 09:24 37.41590 114.78554 30669 ft 493 kts 173°
2026-05-05 09:25 37.35962 114.79758 30669 ft 494 kts 173°
2026-05-05 09:25 37.29188 114.81209 30676 ft 494 kts 173°
2026-05-05 09:26 37.22411 114.82729 30677 ft 495 kts 172°
2026-05-05 09:26 37.15632 114.84331 30680 ft 496 kts 172°
2026-05-05 09:27 37.08848 114.85928 30687 ft 496 kts 172°
2026-05-05 09:27 37.02053 114.87512 30681 ft 497 kts 172°
2026-05-05 09:28 36.95254 114.89088 30687 ft 497 kts 172°
2026-05-05 09:28 36.88459 114.90660 30690 ft 497 kts 172°
2026-05-05 09:29 36.81657 114.92231 30695 ft 497 kts 172°
2026-05-05 09:29 36.74863 114.93798 30694 ft 497 kts 172°
2026-05-05 09:30 36.68055 114.95365 30697 ft 498 kts 172°
2026-05-05 09:30 36.61241 114.96931 30698 ft 498 kts 171°
2026-05-05 09:31 36.54427 114.98494 30704 ft 498 kts 171°
2026-05-05 09:31 36.47612 115.00055 30706 ft 498 kts 171°
2026-05-05 09:32 36.40788 115.01615 30706 ft 498 kts 171°
2026-05-05 09:32 36.33935 115.02716 30702 ft 495 kts 183°
2026-05-05 09:33 36.27088 115.02083 30708 ft 493 kts 188°
2026-05-05 09:33 36.20255 115.01277 30717 ft 493 kts 188°
2026-05-05 09:34 36.13426 115.00522 30712 ft 494 kts 188°
2026-05-05 09:34 36.06569 114.99811 30720 ft 494 kts 187°
2026-05-05 09:35 35.99718 114.99115 30719 ft 495 kts 187°
2026-05-05 09:35 35.89452 114.98073 30723 ft 495 kts 187°
2026-05-05 09:36 35.82584 114.97375 30733 ft 496 kts 187°
2026-05-05 09:36 35.75732 114.96678 30735 ft 496 kts 187°
2026-05-05 09:37 35.68835 114.95979 30739 ft 496 kts 187°
2026-05-05 09:37 35.61944 114.95281 30740 ft 496 kts 187°
2026-05-05 09:38 35.55067 114.94586 30742 ft 496 kts 187°
2026-05-05 09:38 35.48175 114.93891 30747 ft 497 kts 187°
2026-05-05 09:39 35.41275 114.93196 30747 ft 497 kts 187°
2026-05-05 09:39 35.34395 114.92505 30751 ft 497 kts 187°
2026-05-05 09:40 35.27491 114.91812 30759 ft 497 kts 187°
2026-05-05 09:40 35.20646 114.91126 30757 ft 497 kts 187°
2026-05-05 09:41 35.13695 114.90431 30769 ft 497 kts 187°
2026-05-05 09:41 35.06802 114.89743 30764 ft 497 kts 187°
2026-05-05 09:42 34.99949 114.89060 30769 ft 498 kts 187°
2026-05-05 09:42 34.93001 114.88368 30777 ft 498 kts 187°
2026-05-05 09:43 34.86132 114.87686 30774 ft 498 kts 186°
2026-05-05 09:43 34.79233 114.87002 30782 ft 498 kts 186°
2026-05-05 09:44 34.72311 114.86316 30787 ft 498 kts 186°
2026-05-05 09:44 34.65411 114.85634 30784 ft 499 kts 186°
2026-05-05 09:45 34.58477 114.84950 30792 ft 499 kts 186°
2026-05-05 09:45 34.51560 114.84269 30791 ft 499 kts 186°
2026-05-05 09:46 34.44634 114.83588 30794 ft 499 kts 186°
2026-05-05 09:46 34.37702 114.82907 30792 ft 499 kts 186°
2026-05-05 09:47 34.30816 114.82232 30795 ft 499 kts 186°
2026-05-05 09:47 34.23886 114.81554 30793 ft 500 kts 186°
2026-05-05 09:48 34.16952 114.80876 30800 ft 500 kts 186°
2026-05-05 09:48 34.10020 114.80216 30801 ft 500 kts 186°
2026-05-05 09:49 34.03072 114.79565 30801 ft 500 kts 186°
2026-05-05 09:49 33.96128 114.78912 30800 ft 500 kts 186°
2026-05-05 09:50 33.89186 114.78259 30805 ft 500 kts 186°
2026-05-05 09:50 33.82247 114.77602 30803 ft 500 kts 186°
2026-05-05 09:51 33.75303 114.76897 30804 ft 500 kts 186°
2026-05-05 09:51 33.68358 114.76202 30805 ft 501 kts 186°
2026-05-05 09:52 33.61409 114.75593 30808 ft 501 kts 185°
2026-05-05 09:52 33.54512 114.74918 30807 ft 501 kts 187°
2026-05-05 09:53 33.47575 114.74132 30808 ft 501 kts 186°
2026-05-05 09:53 33.40632 114.73456 30809 ft 501 kts 186°
2026-05-05 09:54 33.33678 114.72826 30809 ft 501 kts 186°
2026-05-05 09:54 33.26727 114.72178 30809 ft 501 kts 186°
2026-05-05 09:55 33.19791 114.71523 30811 ft 500 kts 186°
2026-05-05 09:55 33.12845 114.70837 30807 ft 500 kts 186°
2026-05-05 09:56 33.05913 114.70140 30809 ft 500 kts 186°
2026-05-05 09:56 32.98972 114.69448 30813 ft 500 kts 186°
2026-05-05 09:57 32.92050 114.68762 30812 ft 500 kts 186°
2026-05-05 09:57 32.85116 114.68082 30815 ft 499 kts 186°
2026-05-05 09:58 32.78188 114.67431 30815 ft 499 kts 186°
2026-05-05 09:58 32.71268 114.66786 30819 ft 499 kts 186°
2026-05-05 09:59 32.64343 114.66137 30824 ft 499 kts 186°
2026-05-05 09:59 32.57422 114.65488 30819 ft 499 kts 186°
2026-05-05 10:00 32.50510 114.64841 30827 ft 498 kts 186°
2026-05-05 10:00 32.43601 114.64195 30825 ft 498 kts 186°
2026-05-05 10:01 32.36691 114.63548 30827 ft 498 kts 186°
2026-05-05 10:01 32.29827 114.62884 30831 ft 499 kts 186°
2026-05-05 10:02 32.22910 114.62207 30826 ft 498 kts 186°
2026-05-05 10:02 32.16012 114.61535 30830 ft 496 kts 186°
2026-05-05 10:03 32.09134 114.60869 30835 ft 495 kts 186°
2026-05-05 10:03 32.02276 114.60206 30839 ft 494 kts 186°
2026-05-05 10:04 31.95419 114.59544 30839 ft 494 kts 186°
2026-05-05 10:04 31.88575 114.58884 30837 ft 494 kts 186°
2026-05-05 10:05 31.81715 114.58224 30843 ft 494 kts 186°
2026-05-05 10:05 31.74856 114.57565 30854 ft 495 kts 186°
2026-05-05 10:06 31.67993 114.56906 30847 ft 495 kts 186°
2026-05-05 10:06 31.61109 114.56244 30854 ft 496 kts 186°
2026-05-05 10:07 31.54280 114.55582 30853 ft 496 kts 186°
2026-05-05 10:07 31.47355 114.54912 30852 ft 496 kts 186°
2026-05-05 10:08 31.40510 114.54251 30856 ft 497 kts 186°
2026-05-05 10:08 31.33616 114.53586 30853 ft 497 kts 186°
2026-05-05 10:09 31.26731 114.52851 30845 ft 496 kts 191°
2026-05-05 10:09 31.20203 114.50556 30848 ft 488 kts 208°
2026-05-05 10:10 31.14099 114.47065 30854 ft 488 kts 210°
2026-05-05 10:10 31.08001 114.43589 30850 ft 488 kts 209°
2026-05-05 10:11 31.01871 114.40181 30844 ft 488 kts 208°
2026-05-05 10:11 30.95732 114.36789 30836 ft 488 kts 209°
2026-05-05 10:12 30.89578 114.33427 30831 ft 488 kts 208°
2026-05-05 10:12 30.83375 114.30193 30829 ft 488 kts 207°
2026-05-05 10:13 30.77207 114.26924 30826 ft 487 kts 208°
2026-05-05 10:13 30.71062 114.23577 30830 ft 487 kts 209°
2026-05-05 10:14 30.65955 114.20803 30831 ft 487 kts 209°
2026-05-05 10:14 30.59812 114.17485 30834 ft 487 kts 209°
2026-05-05 10:15 30.53698 114.14106 30840 ft 486 kts 210°
2026-05-05 10:15 30.46572 114.10235 30851 ft 487 kts 209°
2026-05-05 10:16 30.41422 114.07484 30850 ft 487 kts 209°
2026-05-05 10:16 30.35270 114.04185 30846 ft 487 kts 209°
2026-05-05 10:17 30.29157 114.00900 30851 ft 487 kts 209°
2026-05-05 10:17 30.23018 113.97607 30848 ft 487 kts 209°
2026-05-05 10:18 30.16857 113.94319 30852 ft 487 kts 209°
2026-05-05 10:18 30.10699 113.91040 30846 ft 487 kts 209°
2026-05-05 10:19 30.04543 113.87763 30854 ft 487 kts 209°
2026-05-05 10:19 29.98389 113.84491 30852 ft 487 kts 210°
2026-05-05 10:20 29.92232 113.81222 30855 ft 487 kts 210°
2026-05-05 10:20 29.85836 113.78537 30858 ft 495 kts 196°
2026-05-05 10:21 29.78944 113.77751 30865 ft 500 kts 186°
2026-05-05 10:21 29.71979 113.77386 30873 ft 501 kts 186°
2026-05-05 10:22 29.65022 113.76969 30860 ft 501 kts 187°
2026-05-05 10:22 29.58068 113.76495 30874 ft 500 kts 187°
2026-05-05 10:23 29.51114 113.76006 30869 ft 500 kts 187°
2026-05-05 10:23 29.44170 113.75524 30877 ft 500 kts 187°
2026-05-05 10:24 29.37266 113.75047 30870 ft 499 kts 188°
2026-05-05 10:24 29.30341 113.74571 30881 ft 499 kts 188°
2026-05-05 10:25 29.23411 113.74104 30888 ft 499 kts 186°
2026-05-05 10:25 29.16397 113.74174 30890 ft 502 kts 182°
2026-05-05 10:26 29.09456 113.74452 30886 ft 502 kts 182°
2026-05-05 10:26 29.02469 113.74695 30887 ft 502 kts 183°
2026-05-05 10:27 28.95484 113.74896 30896 ft 502 kts 183°
2026-05-05 10:27 28.88496 113.75087 30895 ft 502 kts 183°
2026-05-05 10:28 28.81516 113.75282 30897 ft 502 kts 183°
2026-05-05 10:28 28.74526 113.75478 30898 ft 502 kts 184°
2026-05-05 10:29 28.67590 113.75182 30905 ft 497 kts 189°
2026-05-05 10:29 28.60698 113.74595 30902 ft 497 kts 190°
2026-05-05 10:30 28.53796 113.74041 30900 ft 497 kts 189°
2026-05-05 10:30 28.46888 113.73536 30902 ft 498 kts 189°
2026-05-05 10:31 28.39980 113.73041 30913 ft 496 kts 189°
2026-05-05 10:31 28.33077 113.72542 30899 ft 496 kts 189°
2026-05-05 10:32 28.28418 113.72203 30909 ft 496 kts 189°
2026-05-05 10:32 28.21517 113.71696 30902 ft 497 kts 190°
2026-05-05 10:33 28.14614 113.71152 30898 ft 497 kts 190°
2026-05-05 10:33 28.07713 113.70596 30902 ft 497 kts 190°
2026-05-05 10:34 28.00817 113.70019 30901 ft 497 kts 191°
2026-05-05 10:34 27.93936 113.69390 30899 ft 496 kts 191°
2026-05-05 10:35 27.87051 113.68756 30907 ft 495 kts 191°
2026-05-05 10:35 27.80183 113.68132 30900 ft 495 kts 191°
2026-05-05 10:36 27.73335 113.67515 30898 ft 494 kts 191°
2026-05-05 10:36 27.66492 113.66898 30899 ft 493 kts 191°
2026-05-05 10:37 27.59624 113.66478 30896 ft 495 kts 187°
2026-05-05 10:37 27.52752 113.66385 30902 ft 494 kts 187°
2026-05-05 10:38 27.45879 113.66297 30900 ft 493 kts 187°
2026-05-05 10:38 27.39026 113.66160 30898 ft 491 kts 188°
2026-05-05 10:39 27.32203 113.66009 30906 ft 490 kts 188°
2026-05-05 10:39 27.25391 113.65860 30903 ft 489 kts 188°
2026-05-05 10:40 27.18576 113.65817 30900 ft 493 kts 182°
2026-05-05 10:40 27.11822 113.67309 30917 ft 502 kts 170°
2026-05-05 10:41 27.05091 113.69418 30905 ft 502 kts 170°
2026-05-05 10:41 26.98353 113.71482 30901 ft 501 kts 171°
2026-05-05 10:42 26.88253 113.74464 30904 ft 500 kts 171°
2026-05-05 10:43 26.81523 113.76443 30916 ft 500 kts 171°
2026-05-05 10:43 26.74806 113.78420 30911 ft 499 kts 171°
2026-05-05 10:44 26.68108 113.80477 30911 ft 499 kts 170°
2026-05-05 10:44 26.61430 113.82604 30910 ft 499 kts 170°
2026-05-05 10:45 26.54744 113.84713 30920 ft 499 kts 171°
2026-05-05 10:45 26.48058 113.86794 30926 ft 498 kts 171°
2026-05-05 10:46 26.41365 113.88736 30934 ft 497 kts 172°
2026-05-05 10:46 26.34660 113.90641 30941 ft 497 kts 172°
2026-05-05 10:47 26.27999 113.92553 30950 ft 497 kts 172°
2026-05-05 10:47 26.21259 113.94497 30947 ft 497 kts 172°
2026-05-05 10:48 26.14582 113.96423 30950 ft 495 kts 172°
2026-05-05 10:48 26.07915 113.98341 30943 ft 494 kts 172°
2026-05-05 10:49 26.01271 114.00251 30944 ft 493 kts 172°
2026-05-05 10:49 25.94662 114.02196 30938 ft 492 kts 172°
2026-05-05 10:50 25.88101 114.04152 30957 ft 491 kts 172°
2026-05-05 10:50 25.81505 114.06112 30956 ft 490 kts 172°
2026-05-05 10:51 25.74917 114.08062 30953 ft 490 kts 172°
2026-05-05 10:51 25.68317 114.10012 30953 ft 491 kts 172°
2026-05-05 10:52 25.61715 114.11960 30957 ft 491 kts 172°
2026-05-05 10:52 25.55123 114.13904 30950 ft 491 kts 172°
2026-05-05 10:53 25.48499 114.15855 30945 ft 491 kts 172°
2026-05-05 10:53 25.41906 114.17795 30954 ft 491 kts 172°
2026-05-05 10:54 25.35297 114.19737 30964 ft 491 kts 172°
2026-05-05 10:54 25.28697 114.21674 30965 ft 491 kts 172°
2026-05-05 10:55 25.22108 114.23607 30954 ft 490 kts 172°
2026-05-05 10:55 25.15528 114.25535 30961 ft 489 kts 172°
2026-05-05 10:56 25.08956 114.26711 30965 ft 474 kts 187°
2026-05-05 10:56 25.02540 114.25918 30970 ft 460 kts 199°
2026-05-05 10:57 24.96332 114.24495 30960 ft 459 kts 199°
2026-05-05 10:57 24.90073 114.23088 30965 ft 460 kts 199°
2026-05-05 10:58 24.83795 114.21716 30972 ft 460 kts 198°
2026-05-05 10:58 24.77502 114.20356 30968 ft 462 kts 198°
2026-05-05 10:59 24.71205 114.18997 30976 ft 462 kts 198°
2026-05-05 10:59 24.64896 114.17636 30968 ft 461 kts 198°
2026-05-05 11:00 24.58610 114.16281 30975 ft 459 kts 198°
2026-05-05 11:00 24.52351 114.14932 30980 ft 457 kts 198°
2026-05-05 11:01 24.46111 114.13589 30980 ft 456 kts 198°
2026-05-05 11:01 24.39936 114.12260 30984 ft 455 kts 198°
2026-05-05 11:02 24.33738 114.10881 30984 ft 455 kts 200°
2026-05-05 11:02 24.27624 114.09076 30991 ft 456 kts 202°
2026-05-05 11:03 24.21510 114.07135 30986 ft 459 kts 202°
2026-05-05 11:03 24.15358 114.05221 30993 ft 460 kts 202°
2026-05-05 11:04 24.09182 114.03338 30971 ft 460 kts 202°
2026-05-05 11:04 24.03038 114.01477 30998 ft 458 kts 202°
2026-05-05 11:05 23.97887 113.99918 30987 ft 458 kts 202°
2026-05-05 11:05 23.90762 113.97760 30984 ft 457 kts 202°
2026-05-05 11:06 23.85657 113.96215 30990 ft 457 kts 202°
2026-05-05 11:06 23.79535 113.94363 30982 ft 457 kts 202°
2026-05-05 11:07 23.73402 113.92511 30986 ft 457 kts 202°
2026-05-05 11:07 23.67275 113.90662 30985 ft 457 kts 202°
2026-05-05 11:08 23.61145 113.88814 30985 ft 458 kts 202°
2026-05-05 11:08 23.54996 113.86962 30975 ft 458 kts 202°
2026-05-05 11:09 23.48846 113.85110 30979 ft 458 kts 202°
2026-05-05 11:09 23.42702 113.83250 30979 ft 459 kts 203°
2026-05-05 11:10 23.36547 113.81386 30978 ft 459 kts 203°
2026-05-05 11:10 23.30412 113.79526 30969 ft 454 kts 203°
2026-05-05 11:11 23.24424 113.77692 30953 ft 439 kts 204°
2026-05-05 11:11 23.18684 113.75959 30961 ft 424 kts 204°
2026-05-05 11:12 23.13086 113.74276 30961 ft 411 kts 204°
2026-05-05 11:12 23.07661 113.72644 30954 ft 399 kts 204°
2026-05-05 11:13 23.02391 113.71054 30948 ft 386 kts 205°
2026-05-05 11:13 22.97257 113.69535 30973 ft 383 kts 204°
2026-05-05 11:14 22.92084 113.67990 30978 ft 387 kts 205°
2026-05-05 11:14 22.86865 113.66415 30977 ft 390 kts 205°
2026-05-05 11:15 22.81609 113.64812 30682 ft 404 kts 204°
2026-05-05 11:15 22.78878 113.63975 30388 ft 415 kts 204°
2026-05-05 11:15 22.76056 113.63111 29996 ft 428 kts 204°
2026-05-05 11:15 22.73137 113.62221 29472 ft 443 kts 203°
2026-05-05 11:16 22.70124 113.61306 29015 ft 455 kts 202°
2026-05-05 11:16 22.64005 113.59467 28906 ft 454 kts 202°
2026-05-05 11:17 22.57980 113.57653 28821 ft 443 kts 203°
2026-05-05 11:17 22.52116 113.55877 28726 ft 433 kts 203°
2026-05-05 11:17 22.49223 113.54992 28605 ft 431 kts 203°
2026-05-05 11:18 22.46330 113.54100 28493 ft 435 kts 203°
2026-05-05 11:18 22.43405 113.53196 28178 ft 442 kts 203°
2026-05-05 11:18 22.40412 113.52270 27459 ft 453 kts 202°
2026-05-05 11:18 22.37540 113.51387 26860 ft 460 kts 201°
2026-05-05 11:19 22.34429 113.50436 26220 ft 468 kts 201°
2026-05-05 11:19 22.31280 113.49474 25612 ft 476 kts 201°
2026-05-05 11:19 22.28786 113.48711 25133 ft 484 kts 200°
2026-05-05 11:19 22.25469 113.47855 24534 ft 497 kts 192°
2026-05-05 11:20 22.22023 113.47672 24590 ft 494 kts 182°
2026-05-05 11:20 22.18614 113.48034 24513 ft 487 kts 174°
2026-05-05 11:20 22.15393 113.48993 24395 ft 471 kts 165°
2026-05-05 11:20 22.12349 113.50159 23791 ft 465 kts 164°
2026-05-05 11:21 22.09347 113.51319 22954 ft 462 kts 165°
2026-05-05 11:21 22.06316 113.52462 22059 ft 461 kts 165°
2026-05-05 11:21 22.03294 113.53571 21175 ft 459 kts 165°
2026-05-05 11:21 22.00277 113.54663 20323 ft 456 kts 166°
2026-05-05 11:22 21.97285 113.55781 19490 ft 454 kts 163°
2026-05-05 11:22 21.94370 113.57063 18681 ft 452 kts 161°
2026-05-05 11:22 21.91510 113.58427 17830 ft 449 kts 160°
2026-05-05 11:22 21.88666 113.59799 16946 ft 445 kts 160°
2026-05-05 11:23 21.85852 113.61132 16353 ft 435 kts 160°
2026-05-05 11:23 21.83112 113.62406 15788 ft 425 kts 160°
2026-05-05 11:23 21.80415 113.63648 15237 ft 416 kts 160°
2026-05-05 11:23 21.77781 113.64858 14692 ft 408 kts 160°
2026-05-05 11:24 21.75349 113.66400 14137 ft 408 kts 141°
2026-05-05 11:24 21.73547 113.68726 13619 ft 406 kts 121°
2026-05-05 11:24 21.72537 113.71538 13036 ft 402 kts 102°
2026-05-05 11:24 21.72388 113.74488 12460 ft 393 kts 83°
2026-05-05 11:25 21.73069 113.77301 11902 ft 384 kts 66°
2026-05-05 11:25 21.74384 113.79747 11348 ft 374 kts 49°
2026-05-05 11:25 21.76188 113.81710 10833 ft 365 kts 40°
2026-05-05 11:25 21.78083 113.83504 10287 ft 360 kts 39°
2026-05-05 11:26 21.79320 113.84670 9943 ft 356 kts 40°
2026-05-05 11:26 21.81767 113.87020 9292 ft 347 kts 40°
2026-05-05 11:26 21.83713 113.88465 8831 ft 336 kts 20°
2026-05-05 11:26 21.85932 113.89004 8421 ft 323 kts 359°
2026-05-05 11:27 21.88117 113.88763 8028 ft 311 kts 341°
2026-05-05 11:27 21.90118 113.87938 7695 ft 306 kts 332°
2026-05-05 11:27 21.92056 113.86972 7229 ft 307 kts 332°
2026-05-05 11:27 21.93969 113.85985 6835 ft 303 kts 332°
2026-05-05 11:28 21.95855 113.85016 6498 ft 299 kts 332°
2026-05-05 11:28 21.97703 113.84075 6094 ft 294 kts 333°
2026-05-05 11:28 21.99541 113.83151 5672 ft 291 kts 333°
2026-05-05 11:28 22.01380 113.82230 5153 ft 291 kts 333°
2026-05-05 11:29 22.03214 113.81312 4656 ft 291 kts 334°
2026-05-05 11:29 22.05051 113.80395 4138 ft 291 kts 334°
2026-05-05 11:29 22.06296 113.79774 3796 ft 291 kts 335°
2026-05-05 11:29 22.08734 113.78559 3124 ft 291 kts 335°
2026-05-05 11:30 22.09227 113.78313 2986 ft 291 kts 336°
2026-05-05 11:31 22.10015 113.77921 2808 ft 289 kts 337°
2026-05-05 11:31 22.11874 113.77356 2661 ft 271 kts 355°
2026-05-05 11:31 22.13708 113.77167 2537 ft 257 kts 357°
2026-05-05 11:32 22.15435 113.76995 2469 ft 240 kts 356°
2026-05-05 11:32 22.17079 113.76825 2469 ft 236 kts 356°
2026-05-05 11:32 22.18665 113.76655 2484 ft 221 kts 356°
2026-05-05 11:32 22.20137 113.76492 2465 ft 206 kts 356°
2026-05-05 11:33 22.21552 113.76335 2476 ft 203 kts 356°
2026-05-05 11:33 22.22951 113.76179 2458 ft 206 kts 356°
2026-05-05 11:33 22.24364 113.76018 2305 ft 203 kts 356°
2026-05-05 11:33 22.25765 113.75858 2121 ft 197 kts 356°
2026-05-05 11:34 22.27090 113.75760 1918 ft 190 kts 11°
2026-05-05 11:34 22.28118 113.76430 1897 ft 173 kts 62°
2026-05-05 11:34 22.28636 113.77647 1869 ft 181 kts 66°
2026-05-05 11:34 22.29142 113.78886 1763 ft 181 kts 70°
2026-05-05 11:35 22.29597 113.80238 1548 ft 199 kts 72°
2026-05-05 11:35 22.30036 113.81606 1311 ft 181 kts 71°
2026-05-05 11:35 22.30424 113.82817 1045 ft 160 kts 72°
2026-05-05 11:35 22.30719 113.83733 905 ft 146 kts 72°
2026-05-05 11:36 22.30834 113.84092 863 ft 149 kts 71°
2026-05-05 11:39 22.31002 113.84615 754 ft 152 kts 71°
2026-05-05 11:39 22.31338 113.85658 553 ft 140 kts 71°
2026-05-05 11:39 22.31529 113.86255 404 ft 134 kts 73°
2026-05-05 11:40 22.31826 113.87195 284 ft 133 kts 70°
2026-05-05 11:40 22.32125 113.88112 98 ft 131 kts 72°
2026-05-05 11:40 22.32422 113.89027 37 ft 118 kts 72°
2026-05-05 11:40 22.32640 113.89704 34 ft 76 kts 71°
2026-05-05 11:41 22.32739 113.90013 36 ft 45 kts 71°
2026-05-05 11:44 22.32802 113.90208 36 ft 22 kts 73°
2026-05-05 11:44 22.32827 113.90365 35 ft 21 kts 90°
2026-05-05 11:44 22.32811 113.90507 34 ft 17 kts 101°
2026-05-05 11:45 22.32790 113.90631 36 ft 16 kts 98°
2026-05-05 11:45 22.32792 113.90743 37 ft 14 kts 72°
2026-05-05 11:45 22.32824 113.90839 37 ft 13 kts 71°
2026-05-05 11:45 22.32854 113.90932 37 ft 13 kts 73°
2026-05-05 11:46 22.32883 113.91023 37 ft 13 kts 71°
2026-05-05 11:46 22.32919 113.91134 37 ft 18 kts 71°
2026-05-05 11:46 22.32959 113.91258 35 ft 17 kts 71°
2026-05-05 11:46 22.32998 113.91377 37 ft 17 kts 70°
2026-05-05 11:47 22.33035 113.91494 37 ft 16 kts 71°
2026-05-05 11:47 22.33071 113.91604 37 ft 16 kts 71°
2026-05-05 11:47 22.33111 113.91728 36 ft 19 kts 71°
2026-05-05 11:47 22.33154 113.91861 36 ft 18 kts 71°
2026-05-05 11:48 22.33202 113.92102 36 ft 14 kts 126°
2026-05-05 11:48 22.33113 113.92141 36 ft 14 kts 160°
2026-05-05 11:48 22.33010 113.92180 36 ft 18 kts 160°
2026-05-05 11:49 22.32871 113.92231 36 ft 23 kts 160°
2026-05-05 11:49 22.32722 113.92288 36 ft 23 kts 161°
2026-05-05 11:49 22.32575 113.92343 36 ft 22 kts 161°
2026-05-05 11:49 22.32434 113.92396 36 ft 21 kts 160°
2026-05-05 11:50 22.32297 113.92447 36 ft 19 kts 161°
2026-05-05 11:50 22.32198 113.92485 36 ft 9 kts 161°
2026-05-05 11:50 22.32164 113.92537 36 ft 9 kts 89°
2026-05-05 11:50 22.32183 113.92603 35 ft 9 kts 71°
2026-05-05 11:51 22.32192 113.92666 36 ft 9 kts 116°
2026-05-05 11:51 22.32143 113.92701 36 ft 9 kts 162°
2026-05-05 11:51 22.32081 113.92723 35 ft 11 kts 160°
2026-05-05 11:51 22.31999 113.92755 35 ft 13 kts 160°
2026-05-05 11:52 22.31912 113.92787 36 ft 15 kts 159°
2026-05-05 11:52 22.31807 113.92836 36 ft 17 kts 157°
2026-05-05 11:52 22.31703 113.92880 36 ft 13 kts 161°
2026-05-05 11:52 22.31622 113.92910 36 ft 12 kts 161°
2026-05-05 11:53 22.31559 113.92940 36 ft 9 kts 140°
2026-05-05 11:53 22.31554 113.92990 36 ft 7 kts 73°
2026-05-05 11:53 22.31571 113.93033 35 ft 5 kts 53°
2026-05-05 11:53 22.31601 113.93038 36 ft 4 kts 353°
2026-05-05 11:54 22.31626 113.93032 36 ft 4 kts 346°
2026-05-05 11:54 22.31639 113.93029 36 ft 2 kts 346°
2026-05-05 11:54 22.31641 113.93028 36 ft 0 kts 346°